| time (UTC) | temp F | wind direction | speed MPH | gust MPH | rain 1hr in | rain 24hr in | rain mn in | humidity % | barometer mb |
| 20260506084812 | 23 | 225 | 3.0 | 4.0 | 0.00 | 0.00 | 0.00 | 99 | 1017.3 |
| 20260506084308 | 23 | 224 | 6.0 | 9.0 | 0.00 | 0.00 | 0.00 | 99 | 1017.4 |
| 20260506083805 | 23 | 224 | 6.0 | 9.0 | 0.00 | 0.00 | 0.00 | 99 | 1017.4 |
| 20260506083303 | 23 | 223 | 5.0 | 6.0 | 0.00 | 0.00 | 0.00 | 99 | 1017.2 |
| 20260506082800 | 23 | 223 | 5.0 | 6.0 | 0.00 | 0.00 | 0.00 | 99 | 1017.2 |
| 20260506082256 | 24 | 223 | 3.0 | 3.0 | 0.00 | 0.00 | 0.00 | 99 | 1017.6 |
| 20260506081753 | 24 | 223 | 3.0 | 3.0 | 0.00 | 0.00 | 0.00 | 99 | 1017.6 |
| 20260506081251 | 24 | 223 | 3.0 | 3.0 | 0.00 | 0.00 | 0.00 | 99 | 1017.7 |
| 20260506080749 | 24 | 223 | 3.0 | 3.0 | 0.00 | 0.00 | 0.00 | 99 | 1017.7 |
| 20260506080245 | 24 | 223 | 2.0 | 3.0 | 0.00 | 0.00 | 0.00 | 99 | 1017.6 |
| 20260506073228 | 24 | 223 | 2.0 | 2.0 | 0.00 | 0.00 | 0.00 | 99 | 1017.7 |
| 20260506072725 | 24 | 223 | 2.0 | 2.0 | 0.00 | 0.00 | 0.00 | 99 | 1017.7 |
| 20260506072223 | 24 | 223 | 2.0 | 2.0 | 0.00 | 0.00 | 0.00 | 99 | 1017.7 |
| 20260506071720 | 24 | 223 | 2.0 | 2.0 | 0.00 | 0.00 | 0.00 | 99 | 1017.7 |
| 20260506071218 | 24 | 223 | 4.0 | 4.0 | 0.00 | 0.00 | 0.00 | 99 | 1017.7 |
| 20260506070715 | 24 | 223 | 4.0 | 4.0 | 0.00 | 0.00 | 0.00 | 99 | 1017.7 |
| 20260506070212 | 24 | 223 | 4.0 | 4.0 | 0.00 | 0.00 | 0.00 | 99 | 1017.8 |
| 20260506062149 | 24 | 223 | 3.0 | 4.0 | 0.00 | 0.00 | 0.00 | 99 | 1017.8 |
| 20260506061644 | 24 | 223 | 3.0 | 4.0 | 0.00 | 0.00 | 0.00 | 99 | 1017.8 |
| 20260506061143 | 24 | 223 | 4.0 | 4.0 | 0.00 | 0.00 | 0.00 | 99 | 1017.7 |
| 20260506060641 | 24 | 223 | 4.0 | 4.0 | 0.00 | 0.00 | 0.00 | 99 | 1017.7 |
| 20260506060138 | 24 | 223 | 5.0 | 7.0 | 0.00 | 0.02 | 0.02 | 99 | 1017.3 |
| 20260506051109 | 24 | 170 | 9.0 | 10.0 | 0.00 | 0.02 | 0.02 | 99 | 1016.9 |
| 20260506050608 | 24 | 170 | 9.0 | 10.0 | 0.00 | 0.02 | 0.02 | 99 | 1016.9 |
| 20260506050104 | 25 | 144 | 9.0 | 11.0 | 0.00 | 0.02 | 0.02 | 99 | 1016.7 |
| 20260506045058 | 25 | 143 | 0.0 | 0.0 | 0.00 | 0.02 | 0.02 | 99 | 1016.9 |
| 20260506044556 | 25 | 143 | 0.0 | 0.0 | 0.00 | 0.02 | 0.02 | 99 | 1016.9 |
| 20260506044052 | 25 | 143 | 0.0 | 0.0 | 0.00 | 0.02 | 0.02 | 99 | 1016.9 |
| 20260506043549 | 25 | 143 | 0.0 | 0.0 | 0.00 | 0.02 | 0.02 | 99 | 1016.9 |
| 20260506043047 | 26 | 143 | 0.0 | 0.0 | 0.00 | 0.02 | 0.02 | 99 | 1016.9 |
| 20260506042546 | 26 | 143 | 0.0 | 0.0 | 0.00 | 0.02 | 0.02 | 99 | 1016.9 |
| 20260506042043 | 26 | 143 | 0.0 | 0.0 | 0.00 | 0.02 | 0.02 | 99 | 1016.7 |
| 20260506041543 | 26 | 143 | 0.0 | 0.0 | 0.00 | 0.02 | 0.02 | 99 | 1016.7 |
| 20260506041039 | 26 | 143 | 0.0 | 0.0 | 0.00 | 0.02 | 0.02 | 99 | 1016.8 |
| 20260506040537 | 26 | 143 | 0.0 | 0.0 | 0.00 | 0.02 | 0.02 | 99 | 1016.8 |
| 20260506040032 | 26 | 143 | 0.0 | 0.0 | 0.00 | 0.02 | 0.02 | 99 | 1017.1 |
| 20260506035530 | 26 | 143 | 0.0 | 0.0 | 0.00 | 0.02 | 0.02 | 99 | 1017.1 |
| 20260506035027 | 26 | 143 | 0.0 | 0.0 | 0.00 | 0.02 | 0.02 | 99 | 1016.3 |
| 20260506034524 | 26 | 143 | 0.0 | 0.0 | 0.00 | 0.02 | 0.02 | 99 | 1016.4 |
| 20260506034021 | 26 | 143 | 0.0 | 0.0 | 0.00 | 0.02 | 0.02 | 99 | 1016.4 |
| 20260506033518 | 26 | 143 | 0.0 | 0.0 | 0.00 | 0.02 | 0.02 | 99 | 1016.4 |
| 20260506033015 | 26 | 143 | 0.0 | 0.0 | 0.00 | 0.02 | 0.02 | 99 | 1016.4 |
| 20260506032512 | 26 | 143 | 0.0 | 0.0 | 0.00 | 0.02 | 0.02 | 99 | 1016.2 |
| 20260506032009 | 26 | 143 | 0.0 | 0.0 | 0.00 | 0.02 | 0.02 | 99 | 1016.2 |
| 20260506031507 | 25 | 143 | 0.0 | 0.0 | 0.00 | 0.02 | 0.02 | 99 | 1016.3 |
| 20260506031004 | 25 | 143 | 0.0 | 0.0 | 0.00 | 0.02 | 0.02 | 99 | 1016.3 |
| 20260506030502 | 26 | 143 | 0.0 | 0.0 | 0.00 | 0.02 | 0.02 | 99 | 1016.2 |
| 20260506025959 | 26 | 143 | 0.0 | 0.0 | 0.00 | 0.02 | 0.02 | 99 | 1016.2 |
| 20260506025455 | 25 | 143 | 0.0 | 0.0 | 0.00 | 0.02 | 0.02 | 99 | 1015.9 |
| 20260506024951 | 25 | 143 | 0.0 | 0.0 | 0.00 | 0.02 | 0.02 | 99 | 1015.9 |
| 20260506024448 | 25 | 143 | 0.0 | 0.0 | 0.00 | 0.02 | 0.02 | 99 | 1015.8 |
| 20260506023944 | 25 | 143 | 0.0 | 0.0 | 0.00 | 0.02 | 0.02 | 99 | 1015.8 |
| 20260506023441 | 25 | 143 | 0.0 | 0.0 | 0.00 | 0.02 | 0.02 | 99 | 1015.9 |
| 20260506022938 | 25 | 143 | 0.0 | 0.0 | 0.00 | 0.02 | 0.02 | 99 | 1015.9 |
| 20260506022436 | 26 | 143 | 0.0 | 0.0 | 0.00 | 0.02 | 0.02 | 99 | 1015.6 |
| 20260506021934 | 26 | 143 | 0.0 | 0.0 | 0.00 | 0.02 | 0.02 | 99 | 1015.6 |
| 20260506021431 | 26 | 143 | 0.0 | 0.0 | 0.00 | 0.02 | 0.02 | 99 | 1015.2 |
| 20260506020927 | 26 | 143 | 0.0 | 0.0 | 0.00 | 0.02 | 0.02 | 99 | 1015.2 |
| 20260506020426 | 26 | 143 | 0.0 | 0.0 | 0.00 | 0.02 | 0.02 | 99 | 1015.2 |
| 20260506015922 | 26 | 143 | 0.0 | 0.0 | 0.00 | 0.02 | 0.02 | 99 | 1015.2 |
| 20260506015420 | 28 | 143 | 0.0 | 0.0 | 0.00 | 0.02 | 0.02 | 99 | 1015.1 |
| 20260506014916 | 28 | 143 | 0.0 | 0.0 | 0.00 | 0.02 | 0.02 | 99 | 1015.1 |
| 20260506014413 | 27 | 143 | 0.0 | 0.0 | 0.00 | 0.02 | 0.02 | 99 | 1014.9 |
| 20260506013910 | 27 | 143 | 0.0 | 0.0 | 0.00 | 0.02 | 0.02 | 99 | 1014.9 |
| 20260506013408 | 27 | 143 | 0.0 | 0.0 | 0.00 | 0.02 | 0.02 | 99 | 1015.1 |
| 20260506012904 | 27 | 143 | 0.0 | 0.0 | 0.00 | 0.02 | 0.02 | 99 | 1015.1 |
| 20260506012401 | 26 | 143 | 0.0 | 0.0 | 0.00 | 0.02 | 0.02 | 99 | 1014.7 |
| 20260506011858 | 26 | 143 | 0.0 | 0.0 | 0.00 | 0.02 | 0.02 | 99 | 1014.7 |
| 20260506011355 | 26 | 143 | 0.0 | 0.0 | 0.00 | 0.02 | 0.02 | 99 | 1014.7 |
| 20260506010852 | 26 | 143 | 0.0 | 0.0 | 0.00 | 0.02 | 0.02 | 99 | 1014.7 |
| 20260506010350 | 26 | 143 | 0.0 | 0.0 | 0.00 | 0.02 | 0.02 | 99 | 1014.6 |
| 20260506005847 | 26 | 143 | 0.0 | 0.0 | 0.00 | 0.02 | 0.02 | 99 | 1014.6 |
| 20260506005344 | 26 | 143 | 0.0 | 0.0 | 0.00 | 0.02 | 0.02 | 99 | 1014.8 |
| 20260506004839 | 26 | 143 | 0.0 | 0.0 | 0.00 | 0.02 | 0.02 | 99 | 1014.8 |
| 20260506004337 | 27 | 143 | 0.0 | 0.0 | 0.00 | 0.02 | 0.02 | 99 | 1014.8 |
| 20260506003833 | 27 | 143 | 0.0 | 0.0 | 0.00 | 0.02 | 0.02 | 99 | 1014.8 |
| 20260506003330 | 26 | 143 | 0.0 | 0.0 | 0.00 | 0.02 | 0.02 | 99 | 1014.7 |
| 20260506002826 | 26 | 143 | 0.0 | 0.0 | 0.00 | 0.02 | 0.02 | 99 | 1014.7 |
| 20260506002323 | 27 | 143 | 0.0 | 0.0 | 0.00 | 0.02 | 0.02 | 99 | 1014.7 |
| 20260506001818 | 27 | 143 | 0.0 | 0.0 | 0.00 | 0.02 | 0.02 | 99 | 1014.7 |
| 20260506001316 | 27 | 143 | 0.0 | 0.0 | 0.00 | 0.02 | 0.02 | 99 | 1014.6 |
| 20260506000813 | 27 | 143 | 0.0 | 0.0 | 0.00 | 0.02 | 0.02 | 99 | 1014.6 |
| 20260506000311 | 27 | 143 | 0.0 | 0.0 | 0.00 | 0.02 | 0.02 | 99 | 1014.6 |
| 20260505235807 | 27 | 143 | 0.0 | 0.0 | 0.00 | 0.02 | 0.02 | 99 | 1014.6 |
| 20260505235305 | 26 | 143 | 0.0 | 0.0 | 0.00 | 0.02 | 0.02 | 99 | 1014.6 |
| 20260505234801 | 26 | 143 | 0.0 | 0.0 | 0.00 | 0.02 | 0.02 | 99 | 1014.6 |
| 20260505234259 | 27 | 143 | 0.0 | 0.0 | 0.00 | 0.02 | 0.02 | 99 | 1014.7 |
| 20260505233755 | 27 | 143 | 0.0 | 0.0 | 0.00 | 0.02 | 0.02 | 99 | 1014.7 |
| 20260505233254 | 27 | 143 | 0.0 | 0.0 | 0.00 | 0.02 | 0.02 | 99 | 1014.6 |
| 20260505232750 | 27 | 143 | 0.0 | 0.0 | 0.00 | 0.02 | 0.02 | 99 | 1014.6 |
| 20260505232247 | 27 | 143 | 0.0 | 0.0 | 0.00 | 0.02 | 0.02 | 99 | 1014.6 |
| 20260505231743 | 27 | 143 | 0.0 | 0.0 | 0.00 | 0.02 | 0.02 | 99 | 1014.6 |
| 20260505231242 | 28 | 143 | 0.0 | 0.0 | 0.00 | 0.02 | 0.02 | 99 | 1014.3 |
| 20260505230740 | 28 | 143 | 0.0 | 0.0 | 0.00 | 0.02 | 0.02 | 99 | 1014.3 |
| 20260505230237 | 30 | 143 | 0.0 | 0.0 | 0.00 | 0.02 | 0.02 | 99 | 1014.2 |
| 20260505225733 | 30 | 143 | 0.0 | 0.0 | 0.00 | 0.02 | 0.02 | 99 | 1014.2 |
| 20260505225231 | 32 | 143 | 0.0 | 0.0 | 0.00 | 0.02 | 0.02 | 99 | 1014.3 |
| 20260505224726 | 32 | 143 | 0.0 | 0.0 | 0.00 | 0.02 | 0.02 | 99 | 1014.3 |
| 20260505224224 | 31 | 143 | 0.0 | 0.0 | 0.00 | 0.02 | 0.02 | 99 | 1014.4 |
| 20260505223722 | 31 | 143 | 0.0 | 0.0 | 0.00 | 0.02 | 0.02 | 99 | 1014.4 |
| 20260505223218 | 29 | 142 | 0.0 | 0.0 | 0.00 | 0.02 | 0.02 | 99 | 1014.3 |
| 20260505222714 | 29 | 142 | 0.0 | 0.0 | 0.00 | 0.02 | 0.02 | 99 | 1014.3 |
| 20260505222210 | 28 | 85 | 0.0 | 0.0 | 0.00 | 0.02 | 0.02 | 99 | 1014.4 |
| 20260505221707 | 28 | 85 | 0.0 | 0.0 | 0.00 | 0.02 | 0.02 | 99 | 1014.4 |
| 20260505221204 | 29 | 129 | 0.0 | 0.0 | 0.00 | 0.02 | 0.02 | 99 | 1014.1 |
| 20260505220701 | 29 | 129 | 0.0 | 0.0 | 0.00 | 0.02 | 0.02 | 99 | 1014.1 |
| 20260505220158 | 28 | 148 | 0.0 | 0.0 | 0.00 | 0.02 | 0.02 | 99 | 1014.4 |
| 20260505215655 | 28 | 148 | 0.0 | 0.0 | 0.00 | 0.02 | 0.02 | 99 | 1014.4 |
| 20260505215153 | 27 | 181 | 1.0 | 1.0 | 0.00 | 0.02 | 0.02 | 99 | 1014.4 |
| 20260505214651 | 27 | 181 | 1.0 | 1.0 | 0.00 | 0.02 | 0.02 | 99 | 1014.4 |
| 20260505214149 | 26 | 225 | 2.0 | 2.0 | 0.00 | 0.02 | 0.02 | 99 | 1014.2 |
| 20260505213646 | 26 | 225 | 2.0 | 2.0 | 0.00 | 0.02 | 0.02 | 99 | 1014.2 |
| 20260505213143 | 26 | 241 | 1.0 | 1.0 | 0.00 | 0.02 | 0.02 | 99 | 1014.4 |
| 20260505212638 | 26 | 241 | 1.0 | 1.0 | 0.00 | 0.02 | 0.02 | 99 | 1014.4 |
| 20260505212136 | 26 | 242 | 1.0 | 2.0 | 0.00 | 0.02 | 0.02 | 99 | 1014.2 |
| 20260505211633 | 26 | 242 | 1.0 | 2.0 | 0.00 | 0.02 | 0.02 | 99 | 1014.2 |
| 20260505211130 | 26 | 225 | 3.0 | 3.0 | 0.00 | 0.02 | 0.02 | 99 | 1014.4 |
| 20260505210627 | 26 | 225 | 3.0 | 3.0 | 0.00 | 0.02 | 0.02 | 99 | 1014.4 |
| 20260505210124 | 25 | 191 | 4.0 | 6.0 | 0.00 | 0.02 | 0.02 | 99 | 1014.4 |
| 20260505205621 | 25 | 191 | 4.0 | 6.0 | 0.00 | 0.02 | 0.02 | 99 | 1014.4 |
| 20260505205119 | 25 | 215 | 5.0 | 7.0 | 0.00 | 0.02 | 0.02 | 99 | 1014.2 |
| 20260505204616 | 25 | 215 | 5.0 | 7.0 | 0.00 | 0.02 | 0.02 | 99 | 1014.2 |
| 20260505204113 | 25 | 287 | 3.0 | 7.0 | 0.00 | 0.02 | 0.02 | 99 | 1013.9 |
| 20260505203604 | 25 | 287 | 3.0 | 7.0 | 0.00 | 0.02 | 0.02 | 99 | 1013.9 |
| 20260505203101 | 26 | 194 | 3.0 | 4.0 | 0.00 | 0.02 | 0.02 | 99 | 1014.4 |
| 20260505202557 | 26 | 194 | 3.0 | 4.0 | 0.00 | 0.02 | 0.02 | 99 | 1014.4 |
| 20260505202053 | 26 | 243 | 4.0 | 4.0 | 0.00 | 0.02 | 0.02 | 99 | 1014.7 |
| 20260505201550 | 26 | 243 | 4.0 | 4.0 | 0.00 | 0.02 | 0.02 | 99 | 1014.7 |
| 20260505201048 | 26 | 255 | 4.0 | 6.0 | 0.00 | 0.02 | 0.02 | 99 | 1014.6 |
| 20260505200545 | 26 | 255 | 4.0 | 6.0 | 0.00 | 0.02 | 0.02 | 99 | 1014.6 |
| 20260505200041 | 27 | 249 | 5.0 | 6.0 | 0.00 | 0.02 | 0.02 | 99 | 1014.7 |
| 20260505195538 | 27 | 249 | 5.0 | 6.0 | 0.00 | 0.02 | 0.02 | 99 | 1014.7 |
| 20260505195035 | 26 | 273 | 5.0 | 6.0 | 0.00 | 0.02 | 0.02 | 99 | 1014.6 |
| 20260505194532 | 26 | 273 | 5.0 | 6.0 | 0.00 | 0.02 | 0.02 | 99 | 1014.6 |
| 20260505194027 | 26 | 255 | 5.0 | 7.0 | 0.00 | 0.02 | 0.02 | 99 | 1014.8 |
| 20260505193525 | 26 | 255 | 5.0 | 7.0 | 0.00 | 0.02 | 0.02 | 99 | 1014.8 |
| 20260505193022 | 26 | 255 | 4.0 | 4.0 | 0.00 | 0.02 | 0.02 | 99 | 1014.8 |
| 20260505192520 | 26 | 255 | 4.0 | 4.0 | 0.00 | 0.02 | 0.02 | 99 | 1014.8 |
| 20260505192018 | 25 | 321 | 5.0 | 6.0 | 0.00 | 0.02 | 0.02 | 99 | 1014.7 |
| 20260505191516 | 25 | 321 | 5.0 | 6.0 | 0.00 | 0.02 | 0.02 | 99 | 1014.7 |
| 20260505191014 | 26 | 222 | 4.0 | 6.0 | 0.00 | 0.02 | 0.02 | 99 | 1014.8 |
| 20260505190508 | 26 | 222 | 4.0 | 6.0 | 0.00 | 0.02 | 0.02 | 99 | 1014.8 |
| 20260505190004 | 26 | 300 | 5.0 | 8.0 | 0.00 | 0.02 | 0.02 | 99 | 1014.6 |
| 20260505185501 | 26 | 300 | 5.0 | 8.0 | 0.00 | 0.02 | 0.02 | 99 | 1014.6 |
| 20260505184957 | 26 | 221 | 12.0 | 15.0 | 0.00 | 0.02 | 0.02 | 99 | 1014.3 |
| 20260505184454 | 26 | 221 | 12.0 | 15.0 | 0.00 | 0.02 | 0.02 | 99 | 1014.3 |
| 20260505183950 | 30 | 142 | 0.0 | 0.0 | 0.00 | 0.02 | 0.02 | 99 | 1014.8 |
| 20260505183448 | 30 | 142 | 0.0 | 0.0 | 0.00 | 0.02 | 0.02 | 99 | 1014.8 |
| 20260505182944 | 31 | 142 | 0.0 | 0.0 | 0.00 | 0.02 | 0.02 | 99 | 1014.8 |
| 20260505182442 | 31 | 142 | 0.0 | 0.0 | 0.00 | 0.02 | 0.02 | 99 | 1014.8 |
| 20260505181937 | 31 | 141 | 0.0 | 0.0 | 0.00 | 0.02 | 0.02 | 99 | 1014.9 |
| 20260505181435 | 31 | 141 | 0.0 | 0.0 | 0.00 | 0.02 | 0.02 | 99 | 1014.9 |
| 20260505180932 | 30 | 140 | 0.0 | 0.0 | 0.00 | 0.02 | 0.02 | 99 | 1015.1 |
| 20260505180428 | 30 | 140 | 0.0 | 0.0 | 0.00 | 0.02 | 0.02 | 99 | 1015.1 |
| 20260505175925 | 30 | 140 | 0.0 | 0.0 | 0.00 | 0.02 | 0.02 | 99 | 1015.1 |
| 20260505175421 | 30 | 140 | 0.0 | 0.0 | 0.00 | 0.02 | 0.02 | 99 | 1015.3 |
| 20260505174918 | 30 | 140 | 0.0 | 0.0 | 0.00 | 0.02 | 0.02 | 99 | 1015.3 |
| 20260505174415 | 30 | 139 | 0.0 | 0.0 | 0.00 | 0.02 | 0.02 | 99 | 1015.2 |
| 20260505173912 | 30 | 139 | 0.0 | 0.0 | 0.00 | 0.02 | 0.02 | 99 | 1015.2 |
| 20260505173408 | 31 | 139 | 0.0 | 0.0 | 0.00 | 0.02 | 0.02 | 99 | 1015.4 |
| 20260505172905 | 31 | 139 | 0.0 | 0.0 | 0.00 | 0.02 | 0.02 | 99 | 1015.4 |
| 20260505172403 | 30 | 139 | 0.0 | 0.0 | 0.00 | 0.02 | 0.02 | 99 | 1015.8 |
| 20260505171902 | 30 | 139 | 0.0 | 0.0 | 0.00 | 0.02 | 0.02 | 99 | 1015.8 |
| 20260505171359 | 30 | 139 | 0.0 | 0.0 | 0.00 | 0.02 | 0.02 | 99 | 1015.6 |
| 20260505170856 | 30 | 139 | 0.0 | 0.0 | 0.00 | 0.02 | 0.02 | 99 | 1015.6 |
| 20260505170353 | 30 | 139 | 0.0 | 0.0 | 0.00 | 0.02 | 0.02 | 99 | 1015.6 |
| 20260505165848 | 30 | 139 | 0.0 | 0.0 | 0.00 | 0.02 | 0.02 | 99 | 1015.6 |
| 20260505165344 | 30 | 139 | 0.0 | 0.0 | 0.00 | 0.02 | 0.02 | 99 | 1015.6 |
| 20260505164840 | 30 | 139 | 0.0 | 0.0 | 0.00 | 0.02 | 0.02 | 99 | 1015.6 |
| 20260505164337 | 31 | 139 | 0.0 | 0.0 | 0.00 | 0.02 | 0.02 | 99 | 1015.6 |
| 20260505163835 | 31 | 139 | 0.0 | 0.0 | 0.00 | 0.02 | 0.02 | 99 | 1015.6 |
| 20260505163328 | 31 | 139 | 0.0 | 0.0 | 0.00 | 0.02 | 0.02 | 99 | 1015.4 |
| 20260505162826 | 31 | 139 | 0.0 | 0.0 | 0.00 | 0.02 | 0.02 | 99 | 1015.4 |
| 20260505162322 | 30 | 138 | 0.0 | 0.0 | 0.00 | 0.02 | 0.02 | 99 | 1015.8 |
| 20260505161819 | 30 | 138 | 0.0 | 0.0 | 0.00 | 0.02 | 0.02 | 99 | 1015.8 |
| 20260505161317 | 30 | 138 | 0.0 | 0.0 | 0.00 | 0.02 | 0.02 | 99 | 1015.8 |
| 20260505160814 | 30 | 138 | 0.0 | 0.0 | 0.00 | 0.02 | 0.02 | 99 | 1015.8 |
| 20260505160311 | 30 | 138 | 0.0 | 0.0 | 0.00 | 0.02 | 0.02 | 99 | 1015.7 |
| 20260505153244 | 31 | 345 | 2.0 | 2.0 | 0.00 | 0.02 | 0.02 | 99 | 1016.3 |
| 20260505152741 | 31 | 345 | 2.0 | 2.0 | 0.00 | 0.02 | 0.02 | 99 | 1016.3 |
| 20260505152237 | 31 | 1 | 3.0 | 3.0 | 0.00 | 0.02 | 0.02 | 99 | 1016.1 |
| 20260505151732 | 31 | 1 | 3.0 | 3.0 | 0.00 | 0.02 | 0.02 | 99 | 1016.1 |
| 20260505151230 | 30 | 347 | 2.0 | 3.0 | 0.00 | 0.02 | 0.02 | 99 | 1016.2 |
| 20260505150726 | 30 | 347 | 2.0 | 3.0 | 0.00 | 0.02 | 0.02 | 99 | 1016.2 |
| 20260505150224 | 30 | 351 | 4.0 | 4.0 | 0.00 | 0.02 | 0.02 | 99 | 1016.1 |
| 20260505140154 | 28 | 264 | 2.0 | 3.0 | 0.00 | 0.02 | 0.02 | 99 | 1016.2 |
| 20260505130117 | 29 | 332 | 4.0 | 4.0 | 0.00 | 0.02 | 0.02 | 99 | 1015.7 |
| 20260505124607 | 28 | 283 | 4.0 | 6.0 | 0.00 | 0.02 | 0.02 | 99 | 1015.6 |
| 20260505124103 | 29 | 287 | 5.0 | 6.0 | 0.00 | 0.02 | 0.02 | 99 | 1015.3 |
| 20260505123559 | 29 | 287 | 5.0 | 6.0 | 0.00 | 0.02 | 0.02 | 99 | 1015.3 |
| 20260505123056 | 29 | 325 | 5.0 | 6.0 | 0.00 | 0.02 | 0.02 | 99 | 1015.2 |
| 20260505122553 | 29 | 325 | 5.0 | 6.0 | 0.00 | 0.02 | 0.02 | 99 | 1015.2 |
| 20260505122050 | 29 | 278 | 4.0 | 6.0 | 0.00 | 0.02 | 0.02 | 99 | 1015.2 |
| 20260505121546 | 29 | 278 | 4.0 | 6.0 | 0.00 | 0.02 | 0.02 | 99 | 1015.2 |
| 20260505121043 | 29 | 282 | 4.0 | 4.0 | 0.00 | 0.02 | 0.02 | 99 | 1015.2 |
| 20260505120540 | 29 | 282 | 4.0 | 4.0 | 0.00 | 0.02 | 0.02 | 99 | 1015.2 |
| 20260505120035 | 29 | 271 | 4.0 | 4.0 | 0.00 | 0.02 | 0.02 | 99 | 1015.1 |
| 20260505115530 | 29 | 271 | 4.0 | 4.0 | 0.00 | 0.02 | 0.02 | 99 | 1015.1 |
| 20260505115028 | 29 | 267 | 4.0 | 4.0 | 0.00 | 0.02 | 0.02 | 99 | 1015.3 |
| 20260505114525 | 29 | 267 | 4.0 | 4.0 | 0.00 | 0.02 | 0.02 | 99 | 1015.3 |
| 20260505114021 | 29 | 319 | 3.0 | 3.0 | 0.00 | 0.02 | 0.02 | 99 | 1015.2 |
| 20260505113518 | 29 | 319 | 3.0 | 3.0 | 0.00 | 0.02 | 0.02 | 99 | 1015.2 |
| 20260505113014 | 29 | 274 | 2.0 | 2.0 | 0.00 | 0.02 | 0.02 | 99 | 1015.2 |
| 20260505112510 | 29 | 274 | 2.0 | 2.0 | 0.00 | 0.02 | 0.02 | 99 | 1015.2 |
| 20260505112008 | 29 | 229 | 2.0 | 3.0 | 0.00 | 0.02 | 0.02 | 99 | 1014.9 |
| 20260505111501 | 29 | 229 | 2.0 | 3.0 | 0.00 | 0.02 | 0.02 | 99 | 1014.9 |
| 20260505110958 | 30 | 267 | 5.0 | 6.0 | 0.00 | 0.02 | 0.02 | 99 | 1014.9 |
| 20260505110455 | 30 | 267 | 5.0 | 6.0 | 0.00 | 0.02 | 0.02 | 99 | 1014.9 |
| 20260505101921 | 30 | 254 | 6.0 | 7.0 | 0.00 | 0.02 | 0.02 | 99 | 1014.7 |
| 20260505101420 | 30 | 254 | 6.0 | 7.0 | 0.00 | 0.02 | 0.02 | 99 | 1014.7 |
| 20260505100916 | 30 | 263 | 2.0 | 3.0 | 0.00 | 0.02 | 0.02 | 99 | 1014.8 |
| 20260505100413 | 30 | 263 | 2.0 | 3.0 | 0.00 | 0.02 | 0.02 | 99 | 1014.8 |
| 20260505095909 | 30 | 270 | 3.0 | 3.0 | 0.00 | 0.02 | 0.02 | 99 | 1014.8 |
| 20260505095406 | 30 | 270 | 3.0 | 3.0 | 0.00 | 0.02 | 0.02 | 99 | 1014.8 |
| 20260505094902 | 30 | 233 | 3.0 | 3.0 | 0.00 | 0.02 | 0.02 | 99 | 1014.8 |
| 20260505094400 | 30 | 233 | 3.0 | 3.0 | 0.00 | 0.02 | 0.02 | 99 | 1014.8 |
| 20260505093855 | 31 | 218 | 5.0 | 7.0 | 0.00 | 0.02 | 0.02 | 99 | 1014.7 |
| 20260505093352 | 31 | 218 | 5.0 | 7.0 | 0.00 | 0.02 | 0.02 | 99 | 1014.7 |
| 20260505092850 | 31 | 274 | 2.0 | 3.0 | 0.00 | 0.02 | 0.02 | 99 | 1014.9 |
| 20260505092348 | 31 | 274 | 2.0 | 3.0 | 0.00 | 0.02 | 0.02 | 99 | 1014.9 |
| 20260505091844 | 31 | 164 | 2.0 | 3.0 | 0.00 | 0.02 | 0.02 | 99 | 1015.1 |
| 20260505091343 | 31 | 164 | 2.0 | 3.0 | 0.00 | 0.02 | 0.02 | 99 | 1015.1 |
| 20260505090840 | 31 | 245 | 3.0 | 4.0 | 0.00 | 0.02 | 0.02 | 99 | 1014.8 |
| 20260505090338 | 31 | 245 | 3.0 | 4.0 | 0.00 | 0.02 | 0.02 | 99 | 1014.8 |
| 20260505085835 | 31 | 263 | 2.0 | 2.0 | 0.00 | 0.02 | 0.02 | 99 | 1014.9 |
| 20260505085333 | 31 | 205 | 1.0 | 2.0 | 0.00 | 0.02 | 0.02 | 99 | 1014.9 |